Terminal Aerodrome Forecast
Issued by NWS Portland, OR

Home | Current Version | Previous Version | Text Only | Print | Product List | Glossary On
Versions: 1 2 3 4 5 6 7 8 9 10 11 12 13 14 15 16 17 18 19 20 21 22 23 24 25 26 27 28 29 30 31 32 33 34 35 36 37 38 39 40 41 42 43 44
000
FTUS46 KPQR 271131
TAFAST
TAF
KAST 271131Z 2712/2812 24004KT 5SM BR OVC004
     FM271700 29005KT P6SM BKN012
     FM272200 28010KT P6SM SCT012
     FM280400 28006KT P6SM BKN010
     FM280600 24004KT P6SM OVC008=

USA.gov is the U.S. government's official web portal to all federal, state and local government web resources and services.